Time,TemperatureF,DewpointF,PressureIn,WindDirection,WindDirectionDegrees,WindSpeedMPH,WindSpeedGustMPH,Humidity,HourlyPrecipIn,Conditions,Clouds,dailyrainin,SolarRadiationWatts/m^2,SoftwareType,DateUTC
2013-10-17 00:01:00,67.9,63.9,29.99,North,5,0.0,0.0,87,0.00,,---,0.00,0.00,VWS V14.01,2013-10-17 04:01:00,
2013-10-17 00:02:00,67.9,63.9,29.99,North,5,0.0,0.0,87,0.00,,---,0.00,0.00,VWS V14.01,2013-10-17 04:02:00,
2013-10-17 00:03:00,67.9,63.9,29.99,North,5,0.0,0.0,87,0.00,,---,0.00,0.00,VWS V14.01,2013-10-17 04:03:00,
2013-10-17 00:08:00,67.9,63.9,29.99,North,5,0.0,2.0,87,0.00,,---,0.00,0.00,VWS V14.01,2013-10-17 04:08:00,
2013-10-17 00:13:00,67.7,64.0,29.98,North,5,0.0,0.0,88,0.00,,---,0.00,0.00,VWS V14.01,2013-10-17 04:13:00,
2013-10-17 00:18:00,67.7,64.0,29.98,North,5,0.0,0.0,88,0.00,,---,0.00,0.00,VWS V14.01,2013-10-17 04:18:00,
2013-10-17 00:24:00,67.6,63.9,29.98,North,5,0.0,0.0,88,0.00,,---,0.00,0.00,VWS V14.01,2013-10-17 04:24:00,
2013-10-17 00:29:00,67.4,64.1,29.98,North,5,0.0,0.0,89,0.00,,---,0.00,0.00,VWS V14.01,2013-10-17 04:29:00,
2013-10-17 00:34:00,67.1,63.8,29.98,North,5,0.0,0.0,89,0.00,,---,0.00,0.00,VWS V14.01,2013-10-17 04:34:00,
2013-10-17 00:39:00,66.9,63.9,29.98,North,5,0.0,0.0,90,0.00,,---,0.00,0.00,VWS V14.01,2013-10-17 04:39:00,
2013-10-17 00:45:00,66.8,63.8,29.97,North,5,0.0,0.0,90,0.00,,---,0.00,0.00,VWS V14.01,2013-10-17 04:45:00,
2013-10-17 00:50:00,66.7,63.7,29.97,North,5,0.0,0.0,90,0.00,,---,0.00,0.00,VWS V14.01,2013-10-17 04:50:00,
2013-10-17 00:55:00,66.8,63.8,29.96,North,5,0.0,0.0,90,0.00,,---,0.00,0.00,VWS V14.01,2013-10-17 04:55:00,
2013-10-17 01:00:00,67.0,64.0,29.96,North,5,0.0,0.0,90,0.00,,---,0.00,0.00,VWS V14.01,2013-10-17 05:00:00,
2013-10-17 01:05:00,66.8,64.1,29.97,North,5,0.0,0.0,91,0.00,,---,0.00,0.00,VWS V14.01,2013-10-17 05:05:00,
2013-10-17 01:10:00,66.8,64.1,29.96,North,5,0.0,0.0,91,0.00,,---,0.00,0.00,VWS V14.01,2013-10-17 05:10:00,
2013-10-17 01:15:00,66.7,64.0,29.96,North,5,0.0,0.0,91,0.00,,---,0.00,0.00,VWS V14.01,2013-10-17 05:15:00,
2013-10-17 01:20:00,66.6,63.9,29.97,North,5,0.0,0.0,91,0.00,,---,0.00,0.00,VWS V14.01,2013-10-17 05:20:00,
2013-10-17 01:25:00,66.3,63.9,29.96,North,5,0.0,0.0,92,0.00,,---,0.00,0.00,VWS V14.01,2013-10-17 05:25:00,
2013-10-17 01:30:00,66.2,63.8,29.97,North,5,0.0,0.0,92,0.00,,---,0.00,0.00,VWS V14.01,2013-10-17 05:30:00,
2013-10-17 01:36:00,66.2,63.8,29.97,North,5,0.0,0.0,92,0.00,,---,0.00,0.00,VWS V14.01,2013-10-17 05:36:00,
2013-10-17 01:41:00,66.3,64.2,29.97,North,5,0.0,0.0,93,0.00,,---,0.00,0.00,VWS V14.01,2013-10-17 05:41:00,
2013-10-17 01:46:00,66.3,64.2,29.97,North,5,0.0,0.0,93,0.00,,---,0.00,0.00,VWS V14.01,2013-10-17 05:46:00,
2013-10-17 01:51:00,66.4,64.3,29.97,North,5,0.0,0.0,93,0.00,,---,0.00,0.00,VWS V14.01,2013-10-17 05:51:00,
2013-10-17 01:56:00,66.3,64.2,29.97,North,5,0.0,0.0,93,0.00,,---,0.00,0.00,VWS V14.01,2013-10-17 05:56:00,
2013-10-17 02:01:00,66.4,64.3,29.97,North,5,0.0,0.0,93,0.00,,---,0.00,0.00,VWS V14.01,2013-10-17 06:01:00,
2013-10-17 02:06:00,66.3,64.2,29.97,North,5,0.0,0.0,93,0.00,,---,0.00,0.00,VWS V14.01,2013-10-17 06:06:00,
2013-10-17 02:12:00,66.4,64.3,29.96,North,5,0.0,0.0,93,0.00,,---,0.00,0.00,VWS V14.01,2013-10-17 06:12:00,
2013-10-17 02:17:00,66.6,64.5,29.97,North,5,0.0,0.0,93,0.00,,---,0.00,0.00,VWS V14.01,2013-10-17 06:17:00,
2013-10-17 02:22:00,66.6,64.5,29.97,North,5,0.0,0.0,93,0.00,,---,0.00,0.00,VWS V14.01,2013-10-17 06:22:00,
2013-10-17 02:27:00,66.3,64.2,29.97,North,5,0.0,0.0,93,0.00,,---,0.00,0.00,VWS V14.01,2013-10-17 06:27:00,
2013-10-17 02:32:00,66.2,64.1,29.97,North,5,0.0,0.0,93,0.00,,---,0.00,0.00,VWS V14.01,2013-10-17 06:32:00,
2013-10-17 02:37:00,66.1,64.0,29.97,North,5,0.0,0.0,93,0.00,,---,0.00,0.00,VWS V14.01,2013-10-17 06:37:00,
2013-10-17 02:42:00,65.8,63.7,29.96,North,5,0.0,0.0,93,0.00,,---,0.00,0.00,VWS V14.01,2013-10-17 06:42:00,
2013-10-17 02:48:00,65.6,63.5,29.96,North,5,0.0,0.0,93,0.00,,---,0.00,0.00,VWS V14.01,2013-10-17 06:48:00,
2013-10-17 02:53:00,65.4,63.3,29.96,North,5,0.0,0.0,93,0.00,,---,0.00,0.00,VWS V14.01,2013-10-17 06:53:00,
2013-10-17 02:58:00,65.2,63.4,29.96,North,5,0.0,0.0,94,0.00,,---,0.00,0.00,VWS V14.01,2013-10-17 06:58:00,
2013-10-17 03:03:00,65.0,63.2,29.95,North,5,0.0,0.0,94,0.00,,---,0.00,0.00,VWS V14.01,2013-10-17 07:03:00,
2013-10-17 03:08:00,65.1,63.3,29.95,North,5,0.0,0.0,94,0.00,,---,0.00,0.00,VWS V14.01,2013-10-17 07:08:00,
2013-10-17 03:13:00,65.0,63.5,29.95,North,5,0.0,0.0,95,0.00,,---,0.00,0.00,VWS V14.01,2013-10-17 07:13:00,
2013-10-17 03:18:00,65.0,63.5,29.95,North,5,0.0,0.0,95,0.00,,---,0.00,0.00,VWS V14.01,2013-10-17 07:18:00,
2013-10-17 03:24:00,64.7,62.9,29.95,North,5,0.0,0.0,94,0.00,,---,0.00,0.00,VWS V14.01,2013-10-17 07:24:00,
2013-10-17 03:29:00,64.4,62.9,29.95,North,5,0.0,0.0,95,0.00,,---,0.00,0.00,VWS V14.01,2013-10-17 07:29:00,
2013-10-17 03:34:00,64.4,62.9,29.95,North,5,0.0,0.0,95,0.00,,---,0.00,0.00,VWS V14.01,2013-10-17 07:34:00,
2013-10-17 03:39:00,64.0,62.5,29.95,North,5,0.0,0.0,95,0.00,,---,0.00,0.00,VWS V14.01,2013-10-17 07:39:00,
2013-10-17 03:44:00,63.3,61.8,29.95,North,5,0.0,0.0,95,0.00,,---,0.00,0.00,VWS V14.01,2013-10-17 07:44:00,
2013-10-17 03:49:00,63.3,61.8,29.95,North,5,0.0,0.0,95,0.00,,---,0.00,0.00,VWS V14.01,2013-10-17 07:49:00,
2013-10-17 03:54:00,63.4,62.0,29.95,North,5,0.0,0.0,95,0.00,,---,0.00,0.00,VWS V14.01,2013-10-17 07:54:00,
2013-10-17 03:59:00,63.3,61.8,29.95,North,5,0.0,0.0,95,0.00,,---,0.00,0.00,VWS V14.01,2013-10-17 07:59:00,
2013-10-17 04:04:00,63.0,61.8,29.95,North,5,0.0,0.0,96,0.00,,---,0.00,0.00,VWS V14.01,2013-10-17 08:04:00,
2013-10-17 04:09:00,62.9,61.5,29.95,North,5,0.0,0.0,95,0.00,,---,0.00,0.00,VWS V14.01,2013-10-17 08:09:00,
2013-10-17 04:10:00,62.9,61.8,29.95,North,5,0.0,0.0,96,0.00,,---,0.00,0.00,VWS V14.01,2013-10-17 08:10:00,
2013-10-17 04:15:00,63.0,61.8,29.95,North,5,0.0,0.0,96,0.00,,---,0.00,0.00,VWS V14.01,2013-10-17 08:15:00,
2013-10-17 04:20:00,62.9,61.8,29.95,North,5,0.0,0.0,96,0.00,,---,0.00,0.00,VWS V14.01,2013-10-17 08:20:00,
2013-10-17 04:26:00,62.9,61.8,29.95,North,5,0.0,0.0,96,0.00,,---,0.00,0.00,VWS V14.01,2013-10-17 08:26:00,
2013-10-17 04:31:00,63.0,61.8,29.95,North,5,0.0,0.0,96,0.00,,---,0.00,0.00,VWS V14.01,2013-10-17 08:31:00,
2013-10-17 04:36:00,63.0,61.8,29.95,North,5,0.0,0.0,96,0.00,,---,0.00,0.00,VWS V14.01,2013-10-17 08:36:00,
2013-10-17 04:41:00,62.8,61.7,29.95,North,5,0.0,0.0,96,0.00,,---,0.00,0.00,VWS V14.01,2013-10-17 08:41:00,
2013-10-17 04:46:00,62.8,61.7,29.95,North,5,0.0,0.0,96,0.00,,---,0.00,0.00,VWS V14.01,2013-10-17 08:46:00,
2013-10-17 04:51:00,62.2,61.0,29.95,North,5,0.0,0.0,96,0.00,,---,0.00,0.00,VWS V14.01,2013-10-17 08:51:00,
2013-10-17 04:56:00,61.5,60.3,29.95,North,5,0.0,0.0,96,0.00,,---,0.00,0.00,VWS V14.01,2013-10-17 08:56:00,
2013-10-17 05:01:00,61.8,60.7,29.95,North,5,0.0,0.0,96,0.00,,---,0.00,0.00,VWS V14.01,2013-10-17 09:01:00,
2013-10-17 05:07:00,61.8,60.7,29.95,North,5,0.0,0.0,96,0.00,,---,0.00,0.00,VWS V14.01,2013-10-17 09:07:00,
2013-10-17 05:12:00,61.6,60.5,29.95,North,5,0.0,0.0,96,0.00,,---,0.00,0.00,VWS V14.01,2013-10-17 09:12:00,
2013-10-17 05:17:00,61.3,60.2,29.95,North,5,0.0,0.0,96,0.00,,---,0.00,0.00,VWS V14.01,2013-10-17 09:17:00,
2013-10-17 05:22:00,61.1,60.0,29.95,North,5,0.0,0.0,96,0.00,,---,0.00,0.00,VWS V14.01,2013-10-17 09:22:00,
2013-10-17 05:27:00,61.2,60.0,29.95,North,5,0.0,0.0,96,0.00,,---,0.00,0.00,VWS V14.01,2013-10-17 09:27:00,
2013-10-17 05:32:00,61.3,60.2,29.95,North,5,0.0,0.0,96,0.00,,---,0.00,0.00,VWS V14.01,2013-10-17 09:32:00,
2013-10-17 05:37:00,61.1,60.0,29.95,North,5,0.0,0.0,96,0.00,,---,0.00,0.00,VWS V14.01,2013-10-17 09:37:00,
2013-10-17 05:42:00,61.6,60.5,29.95,North,5,0.0,0.0,96,0.00,,---,0.00,0.00,VWS V14.01,2013-10-17 09:42:00,
2013-10-17 05:47:00,62.4,61.5,29.95,North,5,0.0,0.0,97,0.00,,---,0.00,0.00,VWS V14.01,2013-10-17 09:47:00,
2013-10-17 05:53:00,62.0,61.1,29.95,North,5,0.0,0.0,97,0.00,,---,0.00,0.00,VWS V14.01,2013-10-17 09:53:00,
2013-10-17 05:58:00,62.4,61.5,29.94,North,5,0.0,0.0,97,0.00,,---,0.00,0.00,VWS V14.01,2013-10-17 09:58:00,
2013-10-17 06:03:00,62.7,61.8,29.95,North,5,0.0,0.0,97,0.00,,---,0.00,0.00,VWS V14.01,2013-10-17 10:03:00,
2013-10-17 06:08:00,62.4,61.2,29.96,North,5,0.0,0.0,96,0.00,,---,0.00,0.00,VWS V14.01,2013-10-17 10:08:00,
2013-10-17 06:13:00,62.5,61.6,29.96,North,5,0.0,0.0,97,0.00,,---,0.00,0.00,VWS V14.01,2013-10-17 10:13:00,
2013-10-17 06:18:00,62.5,61.6,29.96,North,5,0.0,0.0,97,0.00,,---,0.00,0.00,VWS V14.01,2013-10-17 10:18:00,
2013-10-17 06:23:00,62.4,61.5,29.96,North,5,0.0,0.0,97,0.00,,---,0.00,0.00,VWS V14.01,2013-10-17 10:23:00,
2013-10-17 06:28:00,62.4,61.5,29.97,North,5,0.0,0.0,97,0.00,,---,0.00,0.00,VWS V14.01,2013-10-17 10:28:00,
2013-10-17 06:33:00,62.4,61.5,29.97,North,5,0.0,0.0,97,0.00,,---,0.00,0.00,VWS V14.01,2013-10-17 10:33:00,
2013-10-17 06:39:00,62.2,61.3,29.97,North,5,0.0,0.0,97,0.00,,---,0.00,0.00,VWS V14.01,2013-10-17 10:39:00,
2013-10-17 06:44:00,62.2,61.3,29.97,North,5,0.0,0.0,97,0.00,,---,0.00,0.00,VWS V14.01,2013-10-17 10:44:00,
2013-10-17 06:49:00,62.4,61.5,29.97,North,5,0.0,0.0,97,0.00,,---,0.00,0.00,VWS V14.01,2013-10-17 10:49:00,
2013-10-17 06:54:00,62.6,61.7,29.97,North,5,0.0,0.0,97,0.00,,---,0.00,0.00,VWS V14.01,2013-10-17 10:54:00,
2013-10-17 06:59:00,62.5,61.6,29.96,North,5,0.0,0.0,97,0.00,,---,0.00,0.00,VWS V14.01,2013-10-17 10:59:00,
2013-10-17 07:04:00,62.9,62.0,29.96,North,5,0.0,0.0,97,0.00,,---,0.00,0.00,VWS V14.01,2013-10-17 11:04:00,
2013-10-17 07:09:00,63.1,62.2,29.96,North,5,0.0,0.0,97,0.00,,---,0.00,0.00,VWS V14.01,2013-10-17 11:09:00,
2013-10-17 07:15:00,62.8,61.9,29.96,NNW,344,0.0,0.0,97,0.00,,---,0.00,0.00,VWS V14.01,2013-10-17 11:15:00,
2013-10-17 07:20:00,62.6,61.7,29.96,ESE,113,0.0,0.0,97,0.00,,---,0.00,0.00,VWS V14.01,2013-10-17 11:20:00,
2013-10-17 07:25:00,62.7,61.8,29.96,ESE,113,0.0,0.0,97,0.00,,---,0.00,0.00,VWS V14.01,2013-10-17 11:25:00,
2013-10-17 07:30:00,62.5,61.6,29.96,ESE,113,0.0,0.0,97,0.00,,---,0.00,0.00,VWS V14.01,2013-10-17 11:30:00,
2013-10-17 07:35:00,62.4,61.5,29.96,ESE,113,0.0,0.0,97,0.00,,---,0.00,5.00,VWS V14.01,2013-10-17 11:35:00,
2013-10-17 07:40:00,62.2,61.3,29.96,ESE,113,0.0,0.0,97,0.00,,---,0.00,9.00,VWS V14.01,2013-10-17 11:40:00,
2013-10-17 07:45:00,62.1,61.2,29.96,ESE,113,0.0,0.0,97,0.00,,---,0.00,12.00,VWS V14.01,2013-10-17 11:45:00,
2013-10-17 07:50:00,61.9,61.0,29.96,ESE,113,0.0,0.0,97,0.00,,---,0.00,14.00,VWS V14.01,2013-10-17 11:50:00,
2013-10-17 07:55:00,62.0,61.1,29.96,ESE,113,0.0,0.0,97,0.00,,---,0.00,16.00,VWS V14.01,2013-10-17 11:55:00,
2013-10-17 08:00:00,62.2,61.3,29.97,ESE,113,0.0,0.0,97,0.00,,---,0.00,26.00,VWS V14.01,2013-10-17 12:00:00,
2013-10-17 08:05:00,62.4,61.5,29.97,ESE,113,0.0,0.0,97,0.00,,---,0.00,49.00,VWS V14.01,2013-10-17 12:05:00,
2013-10-17 08:10:00,62.8,61.9,29.97,ESE,113,0.0,0.0,97,0.00,,---,0.00,62.00,VWS V14.01,2013-10-17 12:10:00,
2013-10-17 08:15:00,63.4,62.5,29.97,ESE,113,0.0,0.0,97,0.00,,---,0.00,91.00,VWS V14.01,2013-10-17 12:15:00,
2013-10-17 08:20:00,63.7,62.8,29.97,ESE,113,0.0,0.0,97,0.00,,---,0.00,100.00,VWS V14.01,2013-10-17 12:20:00,
2013-10-17 08:26:00,64.0,63.1,29.97,ESE,113,0.0,0.0,97,0.00,,---,0.00,121.00,VWS V14.01,2013-10-17 12:26:00,
2013-10-17 08:31:00,64.1,63.2,29.97,ESE,114,0.0,1.0,97,0.00,,---,0.00,98.00,VWS V14.01,2013-10-17 12:31:00,
2013-10-17 08:36:00,64.1,63.2,29.98,ESE,114,0.0,0.0,97,0.00,,---,0.00,120.00,VWS V14.01,2013-10-17 12:36:00,
2013-10-17 08:41:00,64.1,63.2,29.98,ESE,114,0.0,0.0,97,0.00,,---,0.00,63.00,VWS V14.01,2013-10-17 12:41:00,
2013-10-17 08:46:00,64.3,63.4,29.98,ESE,115,1.0,2.0,97,0.00,,---,0.00,185.00,VWS V14.01,2013-10-17 12:46:00,
2013-10-17 08:51:00,64.5,63.6,29.98,ESE,115,0.0,0.0,97,0.00,,---,0.00,120.00,VWS V14.01,2013-10-17 12:51:00,
2013-10-17 08:56:00,64.8,63.9,29.98,ESE,115,0.0,0.0,97,0.00,,---,0.00,271.00,VWS V14.01,2013-10-17 12:56:00,
2013-10-17 09:01:00,65.3,64.4,29.99,SE,138,0.0,2.0,97,0.00,,---,0.00,311.00,VWS V14.01,2013-10-17 13:01:00,
2013-10-17 09:06:00,65.5,64.6,29.98,South,170,4.0,5.0,97,0.00,,---,0.00,334.00,VWS V14.01,2013-10-17 13:06:00,
2013-10-17 09:12:00,66.1,65.2,29.98,South,182,0.0,0.0,97,0.00,,---,0.00,376.00,VWS V14.01,2013-10-17 13:12:00,
2013-10-17 09:17:00,66.9,66.0,29.98,South,188,0.0,0.0,97,0.00,,---,0.00,417.00,VWS V14.01,2013-10-17 13:17:00,
2013-10-17 09:22:00,67.8,66.9,29.98,South,186,4.0,4.0,97,0.00,,---,0.00,455.00,VWS V14.01,2013-10-17 13:22:00,
2013-10-17 09:27:00,68.9,67.7,29.98,SW,214,4.0,6.0,96,0.00,,---,0.00,478.00,VWS V14.01,2013-10-17 13:27:00,
2013-10-17 09:32:00,70.3,67.6,29.98,SW,225,4.0,9.0,91,0.00,,---,0.00,483.00,VWS V14.01,2013-10-17 13:32:00,
2013-10-17 09:37:00,71.1,67.4,29.98,WSW,243,8.0,10.0,88,0.00,,---,0.00,471.00,VWS V14.01,2013-10-17 13:37:00,
2013-10-17 09:42:00,71.9,66.8,29.98,SW,214,5.0,10.0,84,0.00,,---,0.00,457.00,VWS V14.01,2013-10-17 13:42:00,
2013-10-17 09:47:00,72.3,67.2,29.98,SW,225,3.0,7.0,84,0.00,,---,0.00,468.00,VWS V14.01,2013-10-17 13:47:00,
2013-10-17 09:53:00,72.7,66.9,29.98,WSW,238,4.0,9.0,82,0.00,,---,0.00,496.00,VWS V14.01,2013-10-17 13:53:00,
2013-10-17 09:58:00,73.2,67.0,29.98,SSW,202,10.0,10.0,81,0.00,,---,0.00,482.00,VWS V14.01,2013-10-17 13:58:00,
2013-10-17 10:03:00,73.3,67.1,29.98,WSW,241,2.0,10.0,81,0.00,,---,0.00,464.00,VWS V14.01,2013-10-17 14:03:00,
2013-10-17 10:08:00,73.3,67.1,29.98,SSW,200,8.0,9.0,81,0.00,,---,0.00,462.00,VWS V14.01,2013-10-17 14:08:00,
2013-10-17 10:13:00,73.5,67.7,29.98,SSW,213,7.0,8.0,82,0.00,,---,0.00,468.00,VWS V14.01,2013-10-17 14:13:00,
2013-10-17 10:18:00,73.9,67.3,29.98,SW,223,8.0,10.0,80,0.00,,---,0.00,483.00,VWS V14.01,2013-10-17 14:18:00,
2013-10-17 10:23:00,74.5,67.6,29.98,WSW,245,5.0,10.0,79,0.00,,---,0.00,496.00,VWS V14.01,2013-10-17 14:23:00,
2013-10-17 10:28:00,74.9,67.6,29.98,SW,215,5.0,11.0,78,0.00,,---,0.00,510.00,VWS V14.01,2013-10-17 14:28:00,
2013-10-17 10:34:00,75.5,68.2,29.98,SW,227,5.0,9.0,78,0.00,,---,0.00,520.00,VWS V14.01,2013-10-17 14:34:00,
2013-10-17 10:39:00,75.6,67.9,29.98,SSW,212,5.0,10.0,77,0.00,,---,0.00,534.00,VWS V14.01,2013-10-17 14:39:00,
2013-10-17 10:44:00,75.2,67.5,29.98,SW,229,7.0,12.0,77,0.00,,---,0.00,545.00,VWS V14.01,2013-10-17 14:44:00,
2013-10-17 10:49:00,75.2,67.1,29.98,SSW,210,4.0,13.0,76,0.00,,---,0.00,559.00,VWS V14.01,2013-10-17 14:49:00,
2013-10-17 10:54:00,75.5,67.4,29.98,SSW,210,4.0,11.0,76,0.00,,---,0.00,568.00,VWS V14.01,2013-10-17 14:54:00,
2013-10-17 10:59:00,76.2,68.1,29.98,WSW,248,9.0,13.0,76,0.00,,---,0.00,582.00,VWS V14.01,2013-10-17 14:59:00,
2013-10-17 11:04:00,76.4,67.9,29.98,SW,222,6.0,12.0,75,0.00,,---,0.00,598.00,VWS V14.01,2013-10-17 15:04:00,
2013-10-17 11:09:00,76.9,68.4,29.97,SW,224,9.0,9.0,75,0.00,,---,0.00,608.00,VWS V14.01,2013-10-17 15:09:00,
2013-10-17 11:14:00,76.9,67.2,29.97,SSW,196,8.0,12.0,72,0.00,,---,0.00,617.00,VWS V14.01,2013-10-17 15:14:00,
2013-10-17 11:19:00,77.3,68.4,29.97,SSW,213,6.0,14.0,74,0.00,,---,0.00,626.00,VWS V14.01,2013-10-17 15:19:00,
2013-10-17 11:24:00,77.5,67.8,29.97,SW,216,11.0,11.0,72,0.00,,---,0.00,638.00,VWS V14.01,2013-10-17 15:24:00,
2013-10-17 11:29:00,77.7,68.4,29.97,SSW,212,9.0,10.0,73,0.00,,---,0.00,647.00,VWS V14.01,2013-10-17 15:29:00,
2013-10-17 11:34:00,77.9,67.8,29.97,SSW,202,7.0,11.0,71,0.00,,---,0.00,657.00,VWS V14.01,2013-10-17 15:34:00,
2013-10-17 11:40:00,78.8,67.8,29.97,West,263,11.0,14.0,69,0.00,,---,0.00,666.00,VWS V14.01,2013-10-17 15:40:00,
2013-10-17 11:45:00,79.7,68.2,29.97,West,259,11.0,14.0,68,0.00,,---,0.00,601.00,VWS V14.01,2013-10-17 15:45:00,
2013-10-17 11:50:00,79.7,67.8,29.97,WSW,237,4.0,13.0,67,0.00,,---,0.00,686.00,VWS V14.01,2013-10-17 15:50:00,
2013-10-17 11:55:00,80.1,67.3,29.96,WSW,245,10.0,15.0,65,0.00,,---,0.00,742.00,VWS V14.01,2013-10-17 15:55:00,
2013-10-17 12:00:00,79.2,66.9,29.96,WSW,251,5.0,14.0,66,0.00,,---,0.00,130.00,VWS V14.01,2013-10-17 16:00:00,
2013-10-17 12:05:00,79.7,66.9,29.95,SW,218,9.0,11.0,65,0.00,,---,0.00,731.00,VWS V14.01,2013-10-17 16:05:00,
2013-10-17 12:10:00,80.1,67.3,29.95,West,260,8.0,9.0,65,0.00,,---,0.00,733.00,VWS V14.01,2013-10-17 16:10:00,
2013-10-17 12:15:00,80.7,67.8,29.95,WSW,247,10.0,12.0,65,0.00,,---,0.00,737.00,VWS V14.01,2013-10-17 16:15:00,
2013-10-17 12:20:00,81.1,66.9,29.95,SW,221,11.0,12.0,62,0.00,,---,0.00,719.00,VWS V14.01,2013-10-17 16:20:00,
2013-10-17 12:25:00,80.3,67.0,29.95,SSW,198,6.0,7.0,64,0.00,,---,0.00,777.00,VWS V14.01,2013-10-17 16:25:00,
2013-10-17 12:30:00,80.6,66.8,29.95,SW,220,8.0,8.0,63,0.00,,---,0.00,816.00,VWS V14.01,2013-10-17 16:30:00,
2013-10-17 12:36:00,81.5,67.2,29.95,South,188,8.0,10.0,62,0.00,,---,0.00,854.00,VWS V14.01,2013-10-17 16:36:00,
2013-10-17 12:41:00,81.1,66.9,29.94,SW,221,6.0,8.0,62,0.00,,---,0.00,677.00,VWS V14.01,2013-10-17 16:41:00,
2013-10-17 12:46:00,81.2,66.9,29.94,WSW,254,11.0,11.0,62,0.00,,---,0.00,258.00,VWS V14.01,2013-10-17 16:46:00,
2013-10-17 12:51:00,81.4,68.1,29.94,SW,216,9.0,10.0,64,0.00,,---,0.00,835.00,VWS V14.01,2013-10-17 16:51:00,
2013-10-17 12:56:00,82.1,66.8,29.93,West,264,9.0,11.0,60,0.00,,---,0.00,244.00,VWS V14.01,2013-10-17 16:56:00,
2013-10-17 13:01:00,81.0,67.7,29.93,WSW,252,11.0,11.0,64,0.00,,---,0.00,306.00,VWS V14.01,2013-10-17 17:01:00,
2013-10-17 13:06:00,80.9,66.7,29.93,WSW,244,7.0,15.0,62,0.00,,---,0.00,823.00,VWS V14.01,2013-10-17 17:06:00,
2013-10-17 13:11:00,80.3,66.6,29.93,West,264,4.0,8.0,63,0.00,,---,0.00,202.00,VWS V14.01,2013-10-17 17:11:00,
2013-10-17 13:16:00,80.4,66.7,29.93,WSW,254,4.0,9.0,63,0.00,,---,0.00,209.00,VWS V14.01,2013-10-17 17:16:00,
2013-10-17 13:21:00,80.6,67.3,29.92,SW,220,7.0,12.0,64,0.00,,---,0.00,197.00,VWS V14.01,2013-10-17 17:21:00,
2013-10-17 13:27:00,80.8,67.5,29.92,WSW,242,5.0,8.0,64,0.00,,---,0.00,868.00,VWS V14.01,2013-10-17 17:27:00,
2013-10-17 13:32:00,81.6,67.3,29.92,WSW,242,6.0,10.0,62,0.00,,---,0.00,260.00,VWS V14.01,2013-10-17 17:32:00,
2013-10-17 13:37:00,80.9,66.7,29.92,SW,221,5.0,10.0,62,0.00,,---,0.00,919.00,VWS V14.01,2013-10-17 17:37:00,
2013-10-17 13:42:00,82.1,67.3,29.91,SW,233,8.0,13.0,61,0.00,,---,0.00,884.00,VWS V14.01,2013-10-17 17:42:00,
2013-10-17 13:47:00,82.5,67.2,29.91,SSE,161,12.0,12.0,60,0.00,,---,0.00,911.00,VWS V14.01,2013-10-17 17:47:00,
2013-10-17 13:52:00,83.3,68.0,29.91,WSW,241,9.0,13.0,60,0.00,,---,0.00,942.00,VWS V14.01,2013-10-17 17:52:00,
2013-10-17 13:57:00,82.4,67.1,29.91,WSW,241,5.0,10.0,60,0.00,,---,0.00,265.00,VWS V14.01,2013-10-17 17:57:00,
2013-10-17 14:02:00,82.5,67.2,29.90,West,259,11.0,13.0,60,0.00,,---,0.00,816.00,VWS V14.01,2013-10-17 18:02:00,
2013-10-17 14:07:00,83.3,67.5,29.90,WSW,238,10.0,14.0,59,0.00,,---,0.00,262.00,VWS V14.01,2013-10-17 18:07:00,
2013-10-17 14:13:00,82.1,66.8,29.90,SW,234,4.0,12.0,60,0.00,,---,0.00,237.00,VWS V14.01,2013-10-17 18:13:00,
2013-10-17 14:18:00,81.5,67.2,29.90,WSW,247,5.0,9.0,62,0.00,,---,0.00,255.00,VWS V14.01,2013-10-17 18:18:00,
2013-10-17 14:23:00,82.2,67.4,29.90,WSW,256,11.0,11.0,61,0.00,,---,0.00,269.00,VWS V14.01,2013-10-17 18:23:00,
2013-10-17 14:28:00,81.9,68.1,29.89,West,261,4.0,10.0,63,0.00,,---,0.00,267.00,VWS V14.01,2013-10-17 18:28:00,
2013-10-17 14:33:00,83.6,68.7,29.89,SW,232,0.0,11.0,61,0.00,,---,0.00,800.00,VWS V14.01,2013-10-17 18:33:00,
2013-10-17 14:38:00,83.2,66.9,29.89,SW,229,9.0,10.0,58,0.00,,---,0.00,257.00,VWS V14.01,2013-10-17 18:38:00,
2013-10-17 14:43:00,82.9,67.1,29.89,SW,222,3.0,10.0,59,0.00,,---,0.00,287.00,VWS V14.01,2013-10-17 18:43:00,
2013-10-17 14:49:00,82.2,66.9,29.89,WSW,244,7.0,14.0,60,0.00,,---,0.00,264.00,VWS V14.01,2013-10-17 18:49:00,
2013-10-17 14:54:00,81.9,66.7,29.89,SW,222,6.0,9.0,60,0.00,,---,0.00,274.00,VWS V14.01,2013-10-17 18:54:00,
2013-10-17 14:59:00,81.5,66.8,29.89,WSW,257,8.0,9.0,61,0.00,,---,0.00,225.00,VWS V14.01,2013-10-17 18:59:00,
2013-10-17 15:04:00,81.4,67.1,29.89,WSW,252,11.0,11.0,62,0.00,,---,0.00,223.00,VWS V14.01,2013-10-17 19:04:00,
2013-10-17 15:09:00,81.2,66.9,29.88,WSW,250,9.0,10.0,62,0.00,,---,0.00,227.00,VWS V14.01,2013-10-17 19:09:00,
2013-10-17 15:14:00,81.1,67.3,29.88,WSW,248,3.0,8.0,63,0.00,,---,0.00,269.00,VWS V14.01,2013-10-17 19:14:00,
2013-10-17 15:19:00,81.1,67.3,29.88,WSW,252,8.0,10.0,63,0.00,,---,0.00,244.00,VWS V14.01,2013-10-17 19:19:00,
2013-10-17 15:24:00,82.0,67.7,29.88,WSW,256,4.0,10.0,62,0.00,,---,0.00,274.00,VWS V14.01,2013-10-17 19:24:00,
2013-10-17 15:29:00,82.9,68.1,29.88,SW,217,6.0,10.0,61,0.00,,---,0.00,682.00,VWS V14.01,2013-10-17 19:29:00,
2013-10-17 15:31:00,83.2,67.9,29.88,SW,218,7.0,7.0,60,0.00,,---,0.00,671.00,VWS V14.01,2013-10-17 19:31:00,
2013-10-17 15:36:00,83.6,67.8,29.88,SW,223,0.0,5.0,59,0.00,,---,0.00,552.00,VWS V14.01,2013-10-17 19:36:00,
2013-10-17 15:41:00,82.7,67.4,29.88,SSW,207,6.0,10.0,60,0.00,,---,0.00,250.00,VWS V14.01,2013-10-17 19:41:00,
2013-10-17 15:46:00,82.4,67.6,29.88,SSW,211,9.0,9.0,61,0.00,,---,0.00,721.00,VWS V14.01,2013-10-17 19:46:00,
2013-10-17 15:51:00,82.8,67.5,29.88,SSW,207,9.0,11.0,60,0.00,,---,0.00,234.00,VWS V14.01,2013-10-17 19:51:00,
2013-10-17 15:57:00,83.1,67.8,29.88,WSW,246,7.0,10.0,60,0.00,,---,0.00,584.00,VWS V14.01,2013-10-17 19:57:00,
2013-10-17 16:02:00,83.7,68.3,29.88,SW,215,0.0,5.0,60,0.00,,---,0.00,490.00,VWS V14.01,2013-10-17 20:02:00,
2013-10-17 16:07:00,83.7,67.9,29.88,SW,228,7.0,12.0,59,0.00,,---,0.00,568.00,VWS V14.01,2013-10-17 20:07:00,
2013-10-17 16:12:00,83.6,67.8,29.88,SSW,204,10.0,12.0,59,0.00,,---,0.00,543.00,VWS V14.01,2013-10-17 20:12:00,
2013-10-17 16:17:00,82.8,67.5,29.87,WSW,246,9.0,11.0,60,0.00,,---,0.00,434.00,VWS V14.01,2013-10-17 20:17:00,
2013-10-17 16:22:00,83.0,68.2,29.88,SW,235,4.0,5.0,61,0.00,,---,0.00,439.00,VWS V14.01,2013-10-17 20:22:00,
2013-10-17 16:27:00,83.0,68.2,29.88,SW,225,6.0,9.0,61,0.00,,---,0.00,473.00,VWS V14.01,2013-10-17 20:27:00,
2013-10-17 16:32:00,83.3,67.5,29.88,WSW,255,9.0,11.0,59,0.00,,---,0.00,422.00,VWS V14.01,2013-10-17 20:32:00,
2013-10-17 16:37:00,83.3,67.0,29.88,West,266,9.0,12.0,58,0.00,,---,0.00,408.00,VWS V14.01,2013-10-17 20:37:00,
2013-10-17 16:42:00,83.4,67.6,29.87,SSW,205,4.0,9.0,59,0.00,,---,0.00,346.00,VWS V14.01,2013-10-17 20:42:00,
2013-10-17 16:48:00,83.1,67.8,29.87,SW,215,3.0,7.0,60,0.00,,---,0.00,388.00,VWS V14.01,2013-10-17 20:48:00,
2013-10-17 16:53:00,83.5,68.2,29.87,SW,228,8.0,8.0,60,0.00,,---,0.00,396.00,VWS V14.01,2013-10-17 20:53:00,
2013-10-17 16:58:00,82.8,67.0,29.87,SW,219,5.0,11.0,59,0.00,,---,0.00,176.00,VWS V14.01,2013-10-17 20:58:00,
2013-10-17 17:03:00,82.1,66.8,29.87,SW,233,6.0,13.0,60,0.00,,---,0.00,148.00,VWS V14.01,2013-10-17 21:03:00,
2013-10-17 17:08:00,81.6,67.3,29.87,SW,236,4.0,8.0,62,0.00,,---,0.00,134.00,VWS V14.01,2013-10-17 21:08:00,
2013-10-17 17:13:00,81.3,67.1,29.87,SSW,212,4.0,8.0,62,0.00,,---,0.00,105.00,VWS V14.01,2013-10-17 21:13:00,
2013-10-17 17:18:00,81.2,67.4,29.87,SW,215,4.0,6.0,63,0.00,,---,0.00,165.00,VWS V14.01,2013-10-17 21:18:00,
2013-10-17 17:23:00,81.3,67.5,29.87,SW,227,4.0,10.0,63,0.00,,---,0.00,114.00,VWS V14.01,2013-10-17 21:23:00,
2013-10-17 17:28:00,81.2,67.4,29.87,SW,232,3.0,6.0,63,0.00,,---,0.00,107.00,VWS V14.01,2013-10-17 21:28:00,
2013-10-17 17:34:00,81.0,67.7,29.87,SW,231,4.0,6.0,64,0.00,,---,0.00,84.00,VWS V14.01,2013-10-17 21:34:00,
2013-10-17 17:39:00,80.9,67.6,29.87,SW,236,2.0,5.0,64,0.00,,---,0.00,86.00,VWS V14.01,2013-10-17 21:39:00,
2013-10-17 17:44:00,80.7,67.4,29.87,SW,229,0.0,5.0,64,0.00,,---,0.00,107.00,VWS V14.01,2013-10-17 21:44:00,
2013-10-17 17:49:00,80.9,68.0,29.87,SW,229,0.0,3.0,65,0.00,,---,0.00,181.00,VWS V14.01,2013-10-17 21:49:00,
2013-10-17 17:54:00,81.4,68.1,29.87,SW,229,0.0,4.0,64,0.00,,---,0.00,171.00,VWS V14.01,2013-10-17 21:54:00,
2013-10-17 17:59:00,81.4,68.1,29.87,SW,229,0.0,1.0,64,0.00,,---,0.00,74.00,VWS V14.01,2013-10-17 21:59:00,
2013-10-17 18:04:00,80.7,67.8,29.87,SW,229,2.0,4.0,65,0.00,,---,0.00,67.00,VWS V14.01,2013-10-17 22:04:00,
2013-10-17 18:09:00,80.3,67.9,29.87,SW,229,0.0,3.0,66,0.00,,---,0.00,56.00,VWS V14.01,2013-10-17 22:09:00,
2013-10-17 18:14:00,79.9,68.0,29.87,SW,229,0.0,0.0,67,0.00,,---,0.00,37.00,VWS V14.01,2013-10-17 22:14:00,
2013-10-17 18:19:00,79.4,67.9,29.88,SW,229,0.0,0.0,68,0.00,,---,0.00,16.00,VWS V14.01,2013-10-17 22:19:00,
2013-10-17 18:25:00,79.1,68.1,29.88,SW,229,0.0,0.0,69,0.00,,---,0.00,9.00,VWS V14.01,2013-10-17 22:25:00,
2013-10-17 18:30:00,78.6,68.4,29.88,SW,229,0.0,0.0,71,0.00,,---,0.00,5.00,VWS V14.01,2013-10-17 22:30:00,
2013-10-17 18:35:00,78.1,68.3,29.88,SW,229,0.0,0.0,72,0.00,,---,0.00,0.00,VWS V14.01,2013-10-17 22:35:00,
2013-10-17 18:40:00,77.8,68.5,29.88,SW,229,0.0,0.0,73,0.00,,---,0.00,0.00,VWS V14.01,2013-10-17 22:40:00,
2013-10-17 18:45:00,77.7,68.4,29.88,SW,229,0.0,0.0,73,0.00,,---,0.00,0.00,VWS V14.01,2013-10-17 22:45:00,
2013-10-17 18:50:00,77.4,68.5,29.88,SW,229,0.0,0.0,74,0.00,,---,0.00,0.00,VWS V14.01,2013-10-17 22:50:00,
2013-10-17 18:55:00,77.3,68.4,29.88,SW,229,0.0,0.0,74,0.00,,---,0.00,0.00,VWS V14.01,2013-10-17 22:55:00,
2013-10-17 19:00:00,77.3,68.0,29.88,SW,229,0.0,0.0,73,0.00,,---,0.00,0.00,VWS V14.01,2013-10-17 23:00:00,
2013-10-17 19:05:00,77.0,68.1,29.88,SW,229,0.0,0.0,74,0.00,,---,0.00,0.00,VWS V14.01,2013-10-17 23:05:00,
2013-10-17 19:10:00,76.8,68.3,29.88,SW,229,0.0,0.0,75,0.00,,---,0.00,0.00,VWS V14.01,2013-10-17 23:10:00,
2013-10-17 19:15:00,76.4,68.3,29.88,SW,229,0.0,0.0,76,0.00,,---,0.00,0.00,VWS V14.01,2013-10-17 23:15:00,
2013-10-17 19:20:00,76.3,68.2,29.88,SW,229,0.0,0.0,76,0.00,,---,0.00,0.00,VWS V14.01,2013-10-17 23:20:00,
2013-10-17 19:25:00,76.3,68.2,29.88,SW,229,0.0,0.0,76,0.00,,---,0.00,0.00,VWS V14.01,2013-10-17 23:25:00,
2013-10-17 19:31:00,76.1,68.4,29.88,SW,229,0.0,0.0,77,0.00,,---,0.00,0.00,VWS V14.01,2013-10-17 23:31:00,
2013-10-17 19:36:00,75.9,68.2,29.88,SW,229,0.0,0.0,77,0.00,,---,0.00,0.00,VWS V14.01,2013-10-17 23:36:00,
2013-10-17 19:41:00,76.0,67.9,29.87,SW,229,0.0,0.0,76,0.00,,---,0.00,0.00,VWS V14.01,2013-10-17 23:41:00,
2013-10-17 19:46:00,76.0,67.5,29.87,SW,229,0.0,0.0,75,0.00,,---,0.00,0.00,VWS V14.01,2013-10-17 23:46:00,
2013-10-17 19:51:00,75.9,67.8,29.88,SW,229,0.0,0.0,76,0.00,,---,0.00,0.00,VWS V14.01,2013-10-17 23:51:00,
2013-10-17 19:56:00,75.3,67.6,29.88,SW,229,0.0,0.0,77,0.00,,---,0.00,0.00,VWS V14.01,2013-10-17 23:56:00,
2013-10-17 20:01:00,74.6,67.3,29.88,SW,229,0.0,0.0,78,0.00,,---,0.00,0.00,VWS V14.01,2013-10-18 00:01:00,
2013-10-17 20:06:00,74.0,67.4,29.88,SW,229,0.0,0.0,80,0.00,,---,0.00,0.00,VWS V14.01,2013-10-18 00:06:00,
2013-10-17 20:12:00,73.7,67.5,29.88,SW,229,0.0,0.0,81,0.00,,---,0.00,0.00,VWS V14.01,2013-10-18 00:12:00,
2013-10-17 20:17:00,73.8,68.0,29.89,SW,229,0.0,0.0,82,0.00,,---,0.00,0.00,VWS V14.01,2013-10-18 00:17:00,
2013-10-17 20:22:00,74.3,67.7,29.89,SW,229,0.0,0.0,80,0.00,,---,0.00,0.00,VWS V14.01,2013-10-18 00:22:00,
2013-10-17 20:27:00,74.7,67.8,29.89,SW,229,0.0,0.0,79,0.00,,---,0.00,0.00,VWS V14.01,2013-10-18 00:27:00,
2013-10-17 20:32:00,74.7,67.8,29.89,SW,229,0.0,0.0,79,0.00,,---,0.00,0.00,VWS V14.01,2013-10-18 00:32:00,
2013-10-17 20:37:00,74.8,67.9,29.90,SW,229,0.0,0.0,79,0.00,,---,0.00,0.00,VWS V14.01,2013-10-18 00:37:00,
2013-10-17 20:42:00,74.2,67.6,29.90,SW,229,0.0,0.0,80,0.00,,---,0.00,0.00,VWS V14.01,2013-10-18 00:42:00,
2013-10-17 20:47:00,73.7,67.5,29.90,SW,229,0.0,0.0,81,0.00,,---,0.00,0.00,VWS V14.01,2013-10-18 00:47:00,
2013-10-17 20:53:00,73.6,67.4,29.90,SW,229,0.0,0.0,81,0.00,,---,0.00,0.00,VWS V14.01,2013-10-18 00:53:00,
2013-10-17 20:58:00,73.5,67.7,29.90,SW,229,0.0,0.0,82,0.00,,---,0.00,0.00,VWS V14.01,2013-10-18 00:58:00,
2013-10-17 21:03:00,73.3,67.5,29.90,SW,229,0.0,0.0,82,0.00,,---,0.00,0.00,VWS V14.01,2013-10-18 01:03:00,
2013-10-17 21:08:00,73.0,67.5,29.90,SW,229,0.0,0.0,83,0.00,,---,0.00,0.00,VWS V14.01,2013-10-18 01:08:00,
2013-10-17 21:13:00,72.9,67.4,29.90,SW,229,0.0,0.0,83,0.00,,---,0.00,0.00,VWS V14.01,2013-10-18 01:13:00,
2013-10-17 21:18:00,72.4,66.9,29.90,SW,229,0.0,0.0,83,0.00,,---,0.00,0.00,VWS V14.01,2013-10-18 01:18:00,
2013-10-17 21:23:00,72.0,66.9,29.90,SW,229,0.0,0.0,84,0.00,,---,0.00,0.00,VWS V14.01,2013-10-18 01:23:00,
2013-10-17 21:28:00,71.7,67.3,29.90,SW,229,0.0,0.0,86,0.00,,---,0.00,0.00,VWS V14.01,2013-10-18 01:28:00,
2013-10-17 21:34:00,71.6,67.2,29.90,SW,229,0.0,0.0,86,0.00,,---,0.00,0.00,VWS V14.01,2013-10-18 01:34:00,
2013-10-17 21:39:00,71.2,66.8,29.90,SW,229,0.0,0.0,86,0.00,,---,0.00,0.00,VWS V14.01,2013-10-18 01:39:00,
2013-10-17 21:44:00,70.8,66.7,29.90,SW,229,0.0,0.0,87,0.00,,---,0.00,0.00,VWS V14.01,2013-10-18 01:44:00,
2013-10-17 21:49:00,70.7,67.0,29.90,SW,229,0.0,0.0,88,0.00,,---,0.00,0.00,VWS V14.01,2013-10-18 01:49:00,
2013-10-17 21:54:00,70.5,66.8,29.90,SW,229,0.0,0.0,88,0.00,,---,0.00,0.00,VWS V14.01,2013-10-18 01:54:00,
2013-10-17 21:59:00,70.3,66.6,29.90,SW,229,0.0,0.0,88,0.00,,---,0.00,0.00,VWS V14.01,2013-10-18 01:59:00,
2013-10-17 22:05:00,70.2,66.8,29.90,SW,229,0.0,0.0,89,0.00,,---,0.00,0.00,VWS V14.01,2013-10-18 02:05:00,
2013-10-17 22:10:00,70.2,66.8,29.91,SW,229,0.0,0.0,89,0.00,,---,0.00,0.00,VWS V14.01,2013-10-18 02:10:00,
2013-10-17 22:15:00,70.2,66.8,29.90,SW,229,0.0,0.0,89,0.00,,---,0.00,0.00,VWS V14.01,2013-10-18 02:15:00,
2013-10-17 22:20:00,70.3,66.6,29.91,SW,229,0.0,0.0,88,0.00,,---,0.00,0.00,VWS V14.01,2013-10-18 02:20:00,
2013-10-17 22:25:00,70.4,67.0,29.90,SW,229,0.0,0.0,89,0.00,,---,0.00,0.00,VWS V14.01,2013-10-18 02:25:00,
2013-10-17 22:30:00,70.4,67.3,29.91,SW,229,0.0,0.0,90,0.00,,---,0.00,0.00,VWS V14.01,2013-10-18 02:30:00,
2013-10-17 22:35:00,70.4,67.3,29.91,SW,229,0.0,0.0,90,0.00,,---,0.00,0.00,VWS V14.01,2013-10-18 02:35:00,
2013-10-17 22:41:00,70.4,67.0,29.91,SW,229,0.0,0.0,89,0.00,,---,0.00,0.00,VWS V14.01,2013-10-18 02:41:00,
2013-10-17 22:46:00,70.5,67.1,29.91,SW,229,0.0,0.0,89,0.00,,---,0.00,0.00,VWS V14.01,2013-10-18 02:46:00,
2013-10-17 22:51:00,70.6,67.2,29.90,SW,229,0.0,0.0,89,0.00,,---,0.00,0.00,VWS V14.01,2013-10-18 02:51:00,
2013-10-17 22:56:00,70.7,67.3,29.91,SW,229,0.0,0.0,89,0.00,,---,0.00,0.00,VWS V14.01,2013-10-18 02:56:00,
2013-10-17 23:01:00,70.6,67.2,29.90,SW,229,0.0,0.0,89,0.00,,---,0.00,0.00,VWS V14.01,2013-10-18 03:01:00,
2013-10-17 23:06:00,70.7,67.0,29.91,SW,229,0.0,0.0,88,0.00,,---,0.00,0.00,VWS V14.01,2013-10-18 03:06:00,
2013-10-17 23:11:00,70.7,67.3,29.90,SW,229,0.0,0.0,89,0.00,,---,0.00,0.00,VWS V14.01,2013-10-18 03:11:00,
2013-10-17 23:16:00,70.6,67.2,29.91,SW,229,0.0,0.0,89,0.00,,---,0.00,0.00,VWS V14.01,2013-10-18 03:16:00,
2013-10-17 23:21:00,70.7,67.3,29.91,SW,229,0.0,0.0,89,0.00,,---,0.00,0.00,VWS V14.01,2013-10-18 03:21:00,
2013-10-17 23:27:00,70.6,67.2,29.91,SW,229,0.0,0.0,89,0.00,,---,0.00,0.00,VWS V14.01,2013-10-18 03:27:00,
2013-10-17 23:32:00,70.6,67.2,29.91,SW,229,0.0,0.0,89,0.00,,---,0.00,0.00,VWS V14.01,2013-10-18 03:32:00,
2013-10-17 23:37:00,70.5,67.4,29.91,SW,229,0.0,0.0,90,0.00,,---,0.00,0.00,VWS V14.01,2013-10-18 03:37:00,
2013-10-17 23:42:00,70.4,67.3,29.91,SW,229,0.0,0.0,90,0.00,,---,0.00,0.00,VWS V14.01,2013-10-18 03:42:00,
2013-10-17 23:47:00,70.3,67.2,29.91,SW,229,0.0,0.0,90,0.00,,---,0.00,0.00,VWS V14.01,2013-10-18 03:47:00,
2013-10-17 23:52:00,70.2,67.4,29.91,SW,229,0.0,0.0,91,0.00,,---,0.00,0.00,VWS V14.01,2013-10-18 03:52:00,
2013-10-17 23:57:00,70.2,67.4,29.91,SW,229,0.0,0.0,91,0.00,,---,0.00,0.00,VWS V14.01,2013-10-18 03:57:00,